Tracking 21612 objects as of 19-Oct-2020
HD Live streaming from Space Station
objects crossing your sky now

COSMOS 1275 DEB

Track COSMOS 1275 DEB now!
10-day predictions


NORAD ID: 39938
Int'l Code: 1981-053NE
Perigee: 924.1 km
Apogee: 1,131.9 km
Inclination: 83.1 °
Period: 105.6 minutes
Semi major axis: 7399 km
RCS: 0.0075 m2 (small)
Launch date: April 25, 1981
Source: Commonwealth of Independent States (former USSR) (CIS)
Launch site: PLESETSK MISSILE AND SPACE COMPLEX (PKMTR)

Note: This is SATELLITE DEBRIS
aabbcc
Your satellite tracking list
Your tracking list is empty




NASA's NSSDC Master Catalog

Two Line Element Set (TLE):
1 39938U 81053MY  20293.35103320  .00000222  00000-0  24555-3 0  9992
2 39938  83.0723 155.4780 0140430 270.1868  88.3192 13.64078923343779
Source of the keplerian elements: AFSPC